Probability
3 6 8 8 9 8 5 4 3 4 5 4 3 2 2 1 0 0 1 2 1 0 0 0 0 0 1 2 3 3 3 3 3 2 1 0 0 0 0 0 0 0 0
5 7 8 8 9 9 7 4 3 3 4 4 4 3 3 2 1 0 1 1 1 0 0 0 0 0 1 2 3 3 3 3 3 2 1 0 0 0 0 0 0 0 0
5 7 7 8 9 9 7 4 3 3 4 5 5 4 3 3 1 1 0 1 1 1 0 0 0 0 1 3 3 4 4 4 3 2 1 0 0 0 0 0 0 0 0
5 6 6 7 9 8 7 5 4 4 5 6 5 3 2 2 2 2 1 0 1 1 1 0 0 1 2 3 4 5 5 5 3 2 1 0 0 0 0 0 0 0 0
4 5 7 8 9 8 6 6 6 6 6 6 5 3 1 1 2 3 2 1 0 1 1 1 1 2 3 3 4 5 6 4 3 1 0 0 0 0 0 0 0 0 0
4 5 7 9 10 9 8 7 6 7 7 7 6 3 1 0 1 2 3 2 1 1 2 2 2 3 3 3 3 4 5 4 2 1 0 0 0 0 0 0 0 0 0
4 5 6 7 8 8 7 6 6 7 7 7 6 5 4 2 1 1 2 3 3 3 3 4 4 3 3 3 3 3 3 2 1 0 0 0 0 0 0 0 0 0 0
5 6 6 5 5 4 4 4 4 5 6 6 6 6 6 4 1 0 1 3 3 3 4 4 4 3 3 3 3 3 1 1 0 0 0 0 0 0 0 0 0 0 0
5 6 6 5 4 3 1 1 1 2 4 5 4 4 4 3 2 0 1 2 3 3 2 2 3 3 3 3 3 2 1 0 0 0 0 0 0 0 0 0 0 0 0
4 5 5 5 5 3 1 0 0 0 2 3 3 3 2 1 1 0 0 1 1 2 1 1 2 2 3 3 3 1 0 0 0 0 0 0 0 0 0 0 0 1 1
5 4 4 4 4 4 3 1 1 0 0 1 2 1 1 0 0 0 0 0 0 0 0 0 2 3 3 3 2 1 0 0 0 0 0 0 0 0 0 0 1 2 2
7 6 4 3 3 4 3 3 2 1 0 0 0 0 0 0 0 1 1 0 0 0 0 1 2 3 4 3 2 1 1 1 1 0 0 0 0 0 0 1 1 2 2
8 7 5 4 3 3 4 3 3 1 1 0 0 1 1 1 1 2 2 1 1 0 0 1 2 4 4 4 3 2 2 2 2 1 0 0 0 0 0 1 2 2 2
9 8 6 4 3 4 5 4 3 3 2 1 1 2 2 3 3 4 3 3 2 1 0 1 2 3 4 4 3 3 3 3 3 2 1 0 0 0 1 2 3 3 2
10 9 8 6 4 4 6 5 4 3 3 2 2 3 3 4 4 4 3 3 3 2 1 1 2 3 3 3 3 3 3 3 3 3 2 0 0 1 2 4 4 3 2
9 9 8 6 5 5 6 6 4 3 3 3 2 3 3 3 4 3 3 3 3 2 1 0 1 3 3 3 3 3 3 3 3 2 1 0 0 1 2 4 4 3 3
7 7 7 5 5 5 5 5 3 3 3 2 2 2 3 3 3 3 3 3 2 1 1 0 1 2 3 3 3 3 3 3 3 1 0 0 0 0 1 2 3 3 3
6 5 5 4 3 3 3 3 2 1 2 2 1 2 3 3 2 3 3 2 1 0 0 0 1 2 3 3 3 3 3 3 2 1 0 0 0 0 0 1 2 3 3
4 4 3 3 3 2 3 3 1 0 1 1 1 2 2 2 2 2 2 1 0 0 0 0 1 2 3 3 3 3 2 1 1 0 0 0 0 0 0 0 1 1 2
3 3 3 3 3 3 3 3 2 1 0 0 0 1 1 1 1 1 1 1 0 0 0 0 1 2 3 3 2 1 1 0 0 0 0 0 0 0 0 0 0 0 1
3 3 3 3 3 3 3 3 3 1 0 0 0 0 0 0 0 0 0 0 0 0 0 0 1 2 3 2 1 0 0 0 0 0 0 0 0 0 0 0 0 0 0
2 3 3 3 3 3 3 3 3 2 1 0 0 0 0 0 0 0 0 0 0 0 0 0 1 2 2 2 1 0 0 0 0 0 0 0 0 0 0 0 0 0 0
1 1 2 3 3 3 3 3 3 3 2 1 0 0 0 0 0 0 0 0 0 0 0 1 2 3 2 1 0 0 0 0 0 0 0 0 0 0 0 0 0 0 0
0 0 1 3 4 3 3 3 3 2 2 1 0 0 0 0 0 0 0 0 0 0 0 1 2 2 1 0 0 0 0 0 0 0 0 0 0 0 0 0 0 0 0
0 0 0 2 3 3 3 2 1 1 1 1 1 1 1 1 0 0 0 0 0 0 0 0 1 1 0 0 0 0 0 0 0 0 0 0 0 0 0 0 0 0 0
0 0 0 1 2 3 3 1 0 0 1 2 2 2 2 1 0 0 0 0 0 0 0 0 0 0 0 0 0 0 0 0 0 0 0 0 0 0 0 0 0 0 0
Wind_Speed
3 2 3 3 5 6 7 8 8 8 8 8 8 8 8 8 9 9 9 9 9 9 9 10 10 10 11 11 11 11 11 11 12 11 11 11 11 11 11 9 8 8 11
3 3 4 4 5 6 7 7 7 8 8 8 8 8 8 8 8 9 9 9 9 9 9 10 10 10 10 11 11 11 11 11 11 10 9 9 10 10 10 10 9 8 10
3 4 5 5 5 6 7 7 7 7 7 7 7 8 8 8 8 8 8 8 9 9 9 10 10 10 10 10 10 11 11 11 10 8 5 6 8 10 10 10 9 10 9
3 4 5 5 5 6 6 7 7 7 7 7 7 7 7 8 8 8 8 8 8 9 9 9 9 9 9 10 10 10 10 10 8 5 5 6 6 8 9 9 9 9 9
4 3 5 5 5 6 6 6 7 7 7 7 7 7 7 8 8 8 8 8 8 8 9 9 9 9 9 9 9 9 9 9 6 5 6 5 6 8 8 8 8 8 8
4 4 5 4 5 6 6 6 6 6 6 6 6 7 7 7 7 7 7 7 7 7 8 8 8 8 8 8 8 8 8 6 4 5 5 5 5 7 8 8 8 7 7
4 3 4 5 5 5 6 5 6 6 5 5 5 6 7 7 7 6 6 6 6 7 7 8 8 7 7 7 7 7 7 5 4 4 4 4 6 7 7 7 7 6 6
4 3 4 5 5 5 5 5 5 5 5 5 5 6 6 6 6 6 6 6 6 6 6 7 7 6 6 6 6 7 6 3 3 4 4 4 5 5 5 6 6 5 6
4 3 3 3 3 4 5 5 5 5 4 4 4 5 6 6 6 5 5 5 6 6 6 6 6 6 6 6 6 6 6 4 2 3 3 3 4 4 4 5 5 5 5
3 2 2 2 2 2 3 5 5 5 4 5 5 5 5 5 5 5 5 5 5 5 5 5 5 6 6 6 6 6 4 1 3 2 2 3 5 3 3 3 4 4 4
2 2 1 1 1 2 2 3 3 4 4 4 4 4 4 4 4 4 4 4 4 4 4 5 5 6 6 6 6 5 2 1 2 1 2 4 4 3 2 3 3 3 3
2 1 1 1 1 1 1 2 1 2 2 2 2 2 2 2 2 3 5 4 4 4 4 5 6 6 3 3 4 2 1 1 1 1 2 5 4 2 2 2 2 2 2
3 2 2 2 1 1 1 1 1 1 1 1 1 1 1 1 2 2 2 3 3 3 3 4 4 2 2 1 1 1 0 0 0 1 2 5 5 3 2 1 1 2 1
3 3 2 2 1 2 1 1 1 1 1 1 1 1 1 1 1 2 1 2 2 1 2 1 1 2 2 2 1 1 0 0 0 1 1 4 5 4 3 2 2 2 2
3 3 3 2 2 2 2 1 1 1 1 1 1 1 1 1 1 2 1 1 1 1 2 1 1 1 1 2 1 1 1 0 1 1 0 2 4 4 3 3 3 3 2
4 4 3 3 3 3 2 2 1 1 1 1 1 1 1 1 1 1 1 1 1 1 1 1 1 1 1 1 1 1 1 1 1 1 1 1 3 5 4 4 3 3 3
4 3 3 4 3 3 3 2 2 1 1 1 1 1 1 1 1 1 1 1 1 1 1 1 2 1 1 1 1 1 1 1 1 1 1 2 2 3 4 4 3 3 3
3 3 3 2 3 3 3 2 2 1 1 1 1 1 1 1 1 2 1 1 1 1 1 1 1 1 1 1 1 1 1 1 2 2 1 1 2 2 2 4 4 4 4
3 3 2 2 2 3 3 2 2 1 1 1 1 1 1 1 1 1 1 1 1 1 1 1 2 1 1 0 1 1 1 2 2 2 2 2 2 2 2 2 3 4 5
3 2 2 2 1 1 1 2 2 2 1 1 1 1 1 1 2 2 1 1 1 2 1 2 2 1 1 1 0 1 1 1 1 2 2 2 2 2 3 3 2 2 4
2 2 2 2 1 1 1 1 2 1 1 1 0 0 1 1 2 2 1 1 1 2 2 2 1 2 1 1 1 1 1 1 1 1 1 1 2 2 2 3 3 2 2
2 2 2 2 2 2 1 1 1 1 1 0 0 0 0 0 1 2 2 2 2 2 2 2 2 1 1 1 1 1 1 1 0 1 2 2 2 2 2 3 3 3 3
3 3 2 2 2 2 1 1 1 1 1 0 0 0 1 1 0 1 2 2 2 2 2 2 2 3 2 2 1 1 1 1 1 1 1 2 2 2 2 3 3 4 3
3 3 3 3 2 2 2 2 2 2 2 1 1 1 0 1 1 1 1 1 2 1 2 2 3 2 3 2 1 1 1 1 2 1 1 1 2 3 3 3 3 3 3
3 3 3 3 2 2 2 3 3 2 2 1 1 0 0 0 1 1 0 0 1 1 2 2 2 2 2 2 2 1 1 1 2 2 2 2 2 2 3 3 2 2 3
2 2 2 3 2 2 2 2 3 3 2 1 1 1 1 0 1 1 1 0 1 1 1 2 2 2 2 2 2 2 2 2 2 2 3 3 3 3 3 2 2 2 2
Wind_Direction
150 140 132 128 124 118 119 120 116 113 110 108 109 106 104 101 95 91 88 87 89 89 88 90 88 86 82 81 79 77 73 71 71 71 72 71 71 70 67 62 60 72 67
155 148 133 121 121 119 118 121 120 117 114 110 109 108 105 100 97 93 90 87 88 90 89 86 86 86 83 81 81 78 74 72 69 67 70 77 73 70 68 60 52 64 66
138 138 137 110 115 116 120 120 124 121 118 114 112 111 107 104 100 96 92 89 88 91 91 88 84 85 84 82 81 79 77 73 69 65 72 82 80 72 70 67 64 64 64
131 132 132 107 112 114 116 120 120 121 118 115 114 113 110 108 104 99 95 92 91 90 91 91 88 85 84 83 81 80 79 74 68 64 77 76 78 75 72 70 67 65 64
127 122 108 100 110 114 113 115 116 117 118 117 113 115 115 113 110 104 100 97 95 93 91 92 91 87 85 84 83 82 81 76 69 76 74 74 76 75 70 68 65 64 61
122 118 108 92 106 111 111 109 108 113 116 118 119 116 116 116 113 109 104 99 99 97 95 93 94 90 86 86 87 84 81 77 88 79 73 70 71 70 67 66 63 60 57
116 109 110 81 95 107 109 110 106 106 110 116 120 122 119 116 113 110 108 103 102 101 100 97 97 93 85 85 88 87 80 65 79 80 73 71 69 66 66 66 62 60 59
113 108 104 76 67 82 97 103 104 102 102 104 112 113 110 114 115 111 108 109 105 103 102 99 96 95 88 88 87 84 74 57 87 82 74 72 63 61 64 65 63 60 58
106 104 102 107 97 79 78 78 81 82 86 91 101 104 102 98 96 96 98 102 105 105 103 100 95 95 92 92 89 81 70 38 76 77 71 62 46 56 64 63 60 60 60
101 104 104 111 116 119 111 82 74 75 75 83 89 94 99 101 100 92 92 91 95 102 106 103 100 99 95 92 88 81 70 61 67 72 62 44 24 37 56 61 57 59 57
107 106 110 122 116 115 121 99 94 86 79 90 102 100 119 141 136 123 101 82 81 87 97 101 102 99 96 95 86 78 83 62 59 51 45 23 12 30 50 52 47 54 51
170 164 150 162 149 131 122 127 133 123 117 119 124 140 152 147 133 124 106 90 85 83 96 99 104 109 119 120 106 111 116 76 74 42 34 10 360 10 27 34 35 40 43
189 183 203 190 168 151 150 143 127 125 126 130 119 131 154 145 139 139 135 125 122 117 125 123 126 127 127 121 134 143 76 74 32 27 28 4 349 343 343 349 8 15 18
196 200 209 198 186 184 176 165 150 145 148 133 130 118 153 156 150 149 151 140 146 148 124 110 126 127 139 144 153 153 154 290 358 354 23 2 347 343 334 336 338 344 336
206 211 214 200 198 192 182 186 179 173 172 169 170 177 180 163 149 161 153 144 150 138 144 145 153 148 158 167 174 194 223 279 306 300 348 3 344 345 345 332 321 318 313
216 216 217 209 207 195 190 191 198 200 189 193 184 202 191 149 141 173 163 153 155 171 171 168 174 177 189 189 193 202 230 251 262 284 301 322 346 342 340 338 334 332 326
230 225 216 215 210 200 194 196 194 200 197 192 194 205 191 166 181 182 173 166 167 171 166 174 174 181 179 186 206 213 234 257 261 279 301 312 319 335 341 340 336 330 321
235 227 220 220 219 208 195 191 193 194 199 197 200 197 195 194 198 192 184 186 172 169 172 182 191 190 195 201 243 267 257 256 259 277 282 291 300 303 334 348 335 324 314
231 223 216 215 224 220 201 188 179 172 181 204 206 206 202 202 203 201 189 186 177 169 172 193 207 203 206 227 285 295 284 272 268 265 268 276 290 300 303 332 328 325 314
230 215 207 201 223 224 194 182 175 166 169 175 195 229 216 208 199 195 188 174 179 173 177 200 207 199 206 221 279 301 300 287 287 286 278 275 284 289 298 305 297 311 316
224 210 199 193 193 177 175 191 192 193 186 172 178 266 228 225 204 185 182 171 194 189 183 187 200 193 187 187 237 284 288 274 285 293 293 301 308 302 306 312 309 306 308
222 217 211 206 203 197 208 214 215 206 200 213 174 242 305 258 220 197 189 187 197 197 189 196 186 192 182 196 238 247 258 238 203 287 296 303 317 324 333 331 326 318 316
224 221 223 221 212 208 214 169 128 139 131 146 319 324 345 322 261 215 197 194 195 203 202 205 195 197 195 188 225 238 243 252 312 256 294 316 333 332 331 340 336 330 327
226 219 217 216 212 201 186 184 172 185 205 224 239 238 1 17 3 303 210 194 188 206 212 207 204 215 206 194 191 261 286 285 251 264 242 291 329 330 329 331 333 342 341
225 216 214 211 200 195 193 196 197 204 222 215 199 205 184 282 356 358 336 232 206 224 230 208 205 209 213 208 192 195 219 241 246 247 263 282 308 315 320 314 316 329 335
222 214 211 206 198 194 194 199 204 206 205 184 190 205 229 276 306 338 325 275 250 252 245 224 210 202 212 218 210 204 204 213 226 239 253 281 297 308 313 302 311 327 330